Home > Weather > Jhelum > Past weeks

Flag for Pakistan Weather for the Past 2 Weeks in Jhelum, Pakistan

Now
50 °F

Fog.


Feels Like: 50 °F
Forecast: 48 / 72 °F
Wind: No wind

Location: Lahore Airport

Current Time: Feb 8, 2016 at 7:21:53 AM

Latest Report: Feb 8, 2016 at 6:25 AM


Visibility: 1 mi

Pressure: 30.07 "Hg

Humidity: 88%

Dew point: 46 °F

Location of JhelumLocation

Historic Weather in Jhelum — Graph

°F

Jhelum Temperature Yesterday

Maximum temperature yesterday: 70 °F (at 2:25 PM)
Minimum temperature yesterday: 50 °F (at 7:25 AM)
Average temperature yesterday: 60 °F

High & Low Weather Summary for the Past Weeks

 TemperatureHumidityPressure
High75 °F (Feb 5, 1:55 PM)100% (Jan 26, 12:55 AM)30.18 "Hg (Jan 26, 12:55 AM)
Low39 °F (Jan 24, 7:00 AM)25% (Feb 4, 3:30 PM)29.74 "Hg (Jan 26, 12:00 PM)
Average57 °F69%30.04 "Hg
* Reported Jan 24 5:00 AM — Feb 8 5:55 AM, Jhelum, Weather by CustomWeather, © 2016

Note: Actual official high and low records may vary slightly from our data, if they occured in-between our weather recording intervals... More about our weather records

Advertising

Jhelum Weather History for the Previous 24 Hours

 ConditionsComfort  
Time TempWeatherWind HumidityBarometerVisibility
5:55 AM
Mon, Feb 8
52 °FFog.3 mph82%30.07 "Hg1 mi
5:25 AM52 °FFog.3 mph82%30.04 "Hg1 mi
4:55 AM52 °FFog.3 mph82%30.04 "Hg1 mi
3:55 AM54 °FFog.No wind82%30.04 "Hg1 mi
3:25 AM54 °FFog.No wind88%30.07 "Hg1 mi
2:55 AM54 °FFog.3 mph82%30.04 "Hg1 mi
2:25 AM54 °FFog.No wind88%30.07 "Hg2 mi
1:55 AM55 °FClear.No wind82%30.07 "Hg2 mi
1:25 AM55 °FClear.6 mph82%30.07 "Hg2 mi
12:55 AM55 °FClear.6 mph82%30.07 "Hg2 mi
12:25 AM57 °FClear.No wind77%30.07 "Hg2 mi
11:55 PM
Sun, Feb 7
57 °FClear.No wind77%30.09 "Hg2 mi
11:25 PM57 °FClear.No wind77%30.09 "Hg2 mi
10:55 PM57 °FClear.No wind77%30.09 "Hg2 mi
10:25 PM59 °FClear.No wind72%30.09 "Hg2 mi
9:55 PM59 °FClear.No wind72%30.07 "Hg2 mi
9:25 PM61 °FClear.5 mph68%30.07 "Hg2 mi
8:55 PM61 °FClear.No wind68%30.07 "Hg3 mi
8:25 PM61 °FClear.No wind68%30.07 "Hg3 mi
7:55 PM61 °FClear.No wind68%30.07 "Hg3 mi
7:30 PM63 °FClear.No wind68%30.04 "Hg3 mi
6:55 PM63 °FClear.5 mph68%30.04 "Hg3 mi
6:30 PM64 °FClear.3 mph64%30.04 "Hg3 mi
5:55 PM64 °FClear.3 mph64%30.01 "Hg3 mi
5:30 PM66 °FPassing clouds.5 mph60%30.01 "Hg3 mi
5:00 PM68 °FPassing clouds.5 mph56%30.01 "Hg3 mi
4:30 PM68 °FPassing clouds.6 mph56%30.01 "Hg3 mi
4:00 PM70 °FPassing clouds.6 mph53%30.01 "Hg3 mi
3:30 PM70 °FPassing clouds.6 mph53%30.04 "Hg3 mi
2:55 PM70 °FPassing clouds.5 mph53%30.04 "Hg3 mi
2:25 PM70 °FRain. Smoke.5 mph53%30.04 "Hg3 mi
1:55 PM68 °FClear.6 mph56%30.04 "Hg3 mi
1:25 PM66 °FPassing clouds.No wind60%30.04 "Hg3 mi
12:59 PM66 °FPassing clouds.No wind60%30.07 "Hg3 mi
12:25 PM63 °FScattered clouds.No wind73%30.07 "Hg3 mi
11:30 AM61 °FScattered clouds.No wind72%30.09 "Hg3 mi
10:59 AM61 °FScattered clouds.No wind72%30.09 "Hg3 mi
10:30 AM59 °FScattered clouds.5 mph77%30.09 "Hg2 mi
9:55 AM57 °FScattered clouds.No wind77%30.09 "Hg2 mi
9:25 AM55 °FScattered clouds.3 mph77%30.09 "Hg2 mi
8:55 AM54 °FFog.No wind82%30.07 "Hg1 mi
8:25 AM52 °FFog.No wind88%30.04 "Hg1 mi
7:55 AM52 °FFog.3 mph88%30.04 "Hg1 mi
7:25 AM50 °FFog.7 mph88%30.01 "Hg1 mi
Weather by CustomWeather, © 2016

See weather overviewHow to use our weather pages